Wind_Speed
28 33 34 34 30 26 23 25 25 23 26 29 29 27 26 25 25 26 25 26 24 22 22 21 21 22 23 23 23 22 22 21 22 26 27 26 25 24 24 25 26 26 25
29 33 35 32 30 27 24 23 22 23 22 29 30 29 26 25 25 26 26 26 25 25 24 24 24 25 25 25 24 23 21 22 23 23 25 26 25 25 25 24 23 23 23
28 33 35 31 31 31 31 26 21 21 20 31 29 28 26 25 26 28 28 27 28 27 27 27 28 29 30 27 24 22 20 20 23 25 26 24 22 22 22 21 20 20 19
25 32 34 36 35 35 31 28 26 28 26 29 28 27 25 27 30 31 31 31 29 28 28 29 28 28 27 26 24 23 21 21 21 27 29 26 24 24 25 24 24 24 24
30 36 36 35 36 34 30 29 32 28 20 27 27 27 28 31 34 33 31 30 29 30 27 27 27 27 25 25 24 23 20 20 20 23 28 27 25 24 24 22 23 25 25
27 37 37 35 36 33 33 31 27 24 22 26 28 29 32 34 33 32 32 31 30 27 27 28 28 27 25 24 24 22 20 18 18 19 22 25 24 22 24 24 23 24 24
30 34 35 33 35 33 33 26 28 25 27 23 29 33 34 34 34 33 32 31 28 26 26 26 27 26 24 23 23 22 19 18 19 20 22 23 23 23 24 24 23 23 23
29 36 36 32 30 26 27 27 29 29 30 30 32 35 35 35 35 33 31 29 26 24 24 24 24 24 22 21 20 20 19 17 18 19 20 22 23 22 22 20 20 20 20
27 28 28 27 29 28 31 29 33 34 33 33 37 36 36 36 33 30 30 28 25 24 24 24 24 22 19 18 18 18 18 17 17 18 19 21 21 21 21 20 19 19 19
20 30 27 34 34 31 31 34 44 36 33 32 37 37 37 32 30 30 31 28 25 24 24 24 23 19 18 17 16 16 18 18 18 18 19 20 20 20 19 18 18 18 17
14 19 18 35 35 33 36 42 43 38 33 35 39 37 35 33 33 31 29 27 23 21 22 22 21 19 17 15 15 15 16 17 17 17 17 16 18 16 16 15 15 15 15
16 15 21 32 32 40 43 46 44 42 37 37 39 37 35 34 32 30 27 25 22 20 20 19 17 15 13 13 14 14 15 16 15 14 15 12 13 14 12 12 13 14 14
17 15 17 23 28 38 44 44 46 40 40 38 39 38 35 34 33 30 28 26 24 20 19 19 16 13 11 12 13 13 14 15 14 13 12 10 9 9 9 10 10 11 12
18 16 19 19 24 39 47 46 48 44 42 39 39 37 36 34 33 31 28 25 22 20 19 19 17 13 13 12 12 13 13 13 12 11 9 7 6 4 6 6 8 8 9
16 20 23 15 22 34 49 47 44 41 39 39 36 35 36 35 33 29 26 25 24 21 17 16 13 11 11 12 11 10 11 10 9 9 7 6 5 4 3 2 4 3 7
18 19 23 22 28 33 40 42 44 46 41 40 42 39 36 33 29 26 24 22 20 17 15 12 10 9 9 10 11 10 8 7 5 6 6 4 4 6 4 4 6 6 4
19 21 25 25 29 29 39 41 45 43 46 44 38 40 36 31 26 24 22 21 20 17 14 11 10 9 10 10 9 8 7 6 4 3 4 3 1 4 6 7 7 7 6
21 22 28 37 33 35 36 36 41 40 41 39 38 39 34 29 25 23 21 20 17 14 11 9 9 11 11 10 8 8 7 5 4 2 2 3 2 2 3 7 8 9 8
17 23 30 35 38 36 33 36 36 37 37 35 38 38 34 28 25 22 20 18 15 15 12 10 10 10 11 10 7 7 8 9 8 8 7 5 5 6 7 7 8 9 9
14 21 21 27 33 36 35 35 38 36 39 39 35 34 32 28 24 22 19 16 16 14 12 12 11 11 10 9 10 10 11 12 12 12 12 11 10 10 10 10 10 11 11
16 17 21 32 31 35 40 33 38 39 40 40 35 29 27 29 26 24 19 17 16 14 12 13 14 15 13 14 14 16 15 17 18 18 17 18 18 15 15 15 14 13 13
19 18 19 31 34 36 41 39 40 41 39 39 38 30 30 26 26 22 20 20 16 14 15 16 17 19 18 19 20 19 18 22 24 22 21 23 21 20 21 19 18 17 16
22 23 23 24 28 33 39 36 40 38 36 40 38 33 36 33 31 23 25 19 18 17 18 17 20 23 21 21 24 23 10 14 13 16 19 21 21 22 24 23 24 21 21
20 20 20 24 27 30 35 41 42 43 46 49 43 35 32 31 36 28 24 22 22 21 21 20 21 25 26 27 29 31 30 30 18 11 18 16 19 20 24 24 24 25 24
20 21 21 23 27 30 35 38 43 44 48 50 46 41 37 41 38 38 28 24 25 24 24 24 24 26 31 34 37 36 33 33 33 33 28 26 25 25 22 23 25 25 24
21 23 25 27 28 33 36 36 39 43 48 50 50 47 45 44 46 45 39 35 31 29 27 28 28 31 34 37 39 40 39 36 34 33 35 35 32 28 27 21 27 27 25
Wind_Direction
178 175 183 180 182 183 181 160 151 151 171 171 168 166 160 156 156 155 154 150 146 143 139 135 130 125 121 116 110 107 106 108 106 103 99 99 102 98 97 98 96 94 93
177 183 183 185 186 187 163 147 149 162 166 173 173 168 163 161 160 158 155 151 148 145 137 131 126 120 115 112 109 106 107 110 110 106 104 101 101 103 103 103 105 101 99
184 180 187 193 187 180 173 165 170 163 172 177 174 168 164 164 163 160 155 151 146 138 131 126 121 114 108 103 103 106 107 109 113 105 99 95 96 101 108 109 114 111 113
182 175 175 173 174 178 178 180 181 180 175 175 175 171 169 167 160 157 153 147 141 138 129 124 119 116 108 102 103 105 106 104 106 104 102 101 97 96 94 93 91 91 89
180 178 181 179 180 181 172 169 172 177 177 181 177 174 166 161 157 154 151 146 144 139 134 126 123 118 110 98 95 97 100 103 106 113 112 109 106 103 99 96 93 92 90
190 186 186 185 184 184 176 168 166 169 184 180 174 166 164 160 158 155 151 146 146 140 131 125 121 115 107 98 95 94 101 106 111 110 109 108 104 100 97 97 94 91 90
193 185 190 190 193 192 185 195 180 171 181 169 171 164 162 160 159 152 150 150 145 139 133 127 121 117 109 102 97 91 98 103 106 108 107 106 104 101 99 97 95 92 89
195 190 187 183 194 199 200 189 173 166 173 188 171 165 162 162 159 157 154 149 146 138 131 130 126 119 110 105 99 94 92 98 99 100 103 103 103 102 100 97 92 90 86
199 201 184 194 195 201 207 214 198 169 174 171 168 166 163 164 162 158 150 148 145 136 129 132 129 124 113 105 100 93 90 95 97 100 102 103 106 103 99 94 89 84 82
211 212 221 208 205 209 213 203 173 168 179 178 169 167 166 161 157 152 149 149 147 140 132 131 132 126 116 108 101 96 93 95 94 98 101 106 107 104 95 90 80 79 76
199 207 203 197 207 195 189 172 161 167 171 173 171 168 162 158 154 153 150 151 151 146 137 135 129 124 121 114 105 99 93 91 94 97 100 107 109 102 98 92 94 90 86
189 169 199 198 193 203 176 174 171 175 170 180 172 167 162 157 153 150 145 147 152 150 144 138 132 128 129 126 119 112 105 97 93 94 96 103 107 109 100 94 89 79 71
181 173 177 200 204 199 183 173 163 167 174 172 173 167 161 156 156 157 154 155 152 155 150 148 145 137 136 132 124 120 107 98 89 86 86 91 95 94 90 81 87 79 75
152 163 161 169 199 192 172 165 165 170 170 173 176 165 164 160 159 159 157 156 155 155 151 144 144 140 141 139 132 127 111 99 88 80 82 89 106 92 98 108 114 87 53
177 168 164 160 162 180 166 162 164 168 172 171 173 169 169 166 162 159 161 162 155 154 150 149 150 146 149 148 139 132 121 107 92 77 73 83 104 96 117 106 100 81 26
191 185 182 175 169 167 172 172 175 170 178 183 178 179 174 171 166 162 162 160 158 152 150 151 153 158 159 156 156 151 142 128 105 71 63 69 103 141 185 212 184 185 331
210 196 193 188 181 184 177 179 179 181 181 175 186 181 178 176 173 170 169 166 168 153 159 164 167 170 171 163 170 174 176 166 136 78 42 31 90 152 192 243 261 280 295
213 211 200 187 186 190 182 179 176 179 176 177 189 186 181 181 181 177 178 176 172 169 169 173 190 181 178 180 180 195 199 204 211 221 327 333 311 240 230 241 260 274 291
212 214 201 194 194 177 173 174 182 190 188 191 192 188 186 188 187 188 186 182 180 186 185 200 197 200 198 195 198 217 234 237 237 254 263 275 279 268 254 258 261 270 282
209 199 211 201 198 182 174 188 189 193 189 190 193 192 191 193 191 194 190 191 193 191 203 214 215 218 219 228 238 244 248 247 248 258 262 268 270 268 268 267 271 274 273
203 206 209 198 199 192 186 183 185 182 182 189 186 194 196 196 195 196 195 204 202 209 228 237 228 230 234 237 239 247 252 253 253 256 261 267 266 268 268 269 272 273 274
203 204 201 206 203 199 188 188 187 184 185 183 197 193 199 198 201 207 213 213 215 225 239 244 237 240 242 241 241 247 252 255 254 258 266 268 266 268 270 272 273 274 279
201 201 197 200 203 204 197 187 187 191 194 192 200 200 197 208 217 213 219 222 228 237 248 255 249 246 250 251 248 243 237 244 266 268 271 263 265 271 272 272 270 272 280
203 201 203 198 200 202 203 202 200 205 203 198 201 205 204 205 213 222 221 233 242 244 249 255 258 256 256 255 253 249 251 260 259 276 278 266 267 265 272 266 264 267 273
206 202 202 205 201 202 201 205 207 207 206 206 209 211 214 216 221 231 230 238 246 248 252 258 261 261 259 256 254 255 256 256 261 258 267 272 273 282 280 269 258 263 268
216 208 204 207 206 204 206 208 211 215 213 215 215 221 224 226 230 231 233 242 249 254 256 262 267 268 264 259 259 257 261 257 259 261 264 268 271 277 279 276 263 266 273
Height
1492 1497 1496 1499 1504 1509 1508 1508 1505 1504 1518 1525 1527 1529 1530 1531 1534 1534 1535 1535 1538 1541 1540 1541 1543 1541 1544 1546 1548 1550 1551 1553 1554 1556 1556 1558 1560 1560 1561 1562 1564 1565 1566
1487 1493 1496 1498 1505 1507 1508 1509 1506 1503 1516 1524 1528 1529 1529 1533 1535 1536 1536 1537 1539 1541 1543 1542 1543 1545 1547 1548 1550 1551 1553 1554 1555 1557 1558 1561 1562 1562 1564 1566 1566 1567 1568
1485 1488 1494 1497 1501 1506 1508 1508 1509 1509 1513 1523 1527 1530 1531 1534 1536 1538 1538 1539 1540 1540 1546 1544 1546 1548 1549 1551 1552 1554 1555 1556 1556 1557 1559 1563 1565 1563 1565 1567 1568 1569 1569
1484 1488 1493 1495 1499 1504 1507 1509 1511 1513 1515 1522 1526 1531 1532 1535 1537 1539 1539 1539 1541 1543 1547 1547 1549 1551 1552 1553 1554 1556 1558 1558 1558 1560 1561 1566 1568 1567 1566 1569 1570 1570 1570
1480 1485 1494 1494 1497 1503 1506 1509 1512 1516 1516 1524 1527 1530 1533 1536 1538 1538 1540 1539 1542 1545 1547 1548 1551 1552 1554 1556 1556 1557 1559 1560 1560 1561 1564 1565 1567 1569 1567 1570 1571 1572 1572
1481 1485 1490 1494 1498 1502 1505 1509 1511 1514 1518 1522 1527 1529 1535 1539 1541 1540 1541 1542 1544 1547 1549 1549 1551 1553 1556 1558 1559 1560 1561 1562 1562 1564 1563 1565 1568 1569 1570 1571 1573 1574 1573
1481 1485 1490 1495 1497 1501 1503 1509 1511 1513 1519 1521 1528 1531 1537 1540 1542 1542 1543 1545 1547 1549 1550 1552 1552 1555 1558 1560 1561 1562 1564 1565 1564 1565 1565 1565 1570 1570 1572 1573 1573 1574 1574
1482 1482 1488 1493 1496 1498 1501 1505 1511 1514 1519 1523 1530 1534 1537 1542 1543 1544 1545 1546 1549 1551 1552 1554 1556 1558 1561 1561 1564 1565 1567 1568 1568 1568 1568 1569 1570 1572 1573 1573 1574 1575 1576
1481 1483 1487 1492 1494 1496 1499 1503 1509 1514 1521 1524 1530 1536 1539 1543 1545 1547 1548 1548 1552 1553 1554 1557 1558 1560 1563 1565 1567 1569 1569 1570 1570 1570 1571 1572 1573 1575 1575 1575 1575 1575 1577
1478 1482 1484 1488 1488 1490 1496 1502 1507 1513 1520 1522 1530 1537 1541 1546 1548 1549 1549 1551 1553 1554 1556 1559 1562 1564 1566 1568 1571 1572 1572 1573 1573 1574 1572 1574 1574 1576 1576 1577 1578 1578 1579
1477 1479 1481 1483 1485 1486 1494 1501 1506 1512 1521 1523 1531 1538 1542 1546 1548 1551 1551 1553 1555 1558 1558 1561 1564 1566 1569 1571 1572 1574 1575 1575 1576 1576 1576 1576 1577 1577 1578 1578 1580 1581 1581
1477 1477 1479 1480 1484 1488 1491 1497 1505 1511 1517 1524 1532 1538 1543 1547 1550 1553 1553 1556 1559 1560 1561 1561 1565 1567 1571 1572 1572 1573 1575 1576 1577 1578 1578 1579 1579 1579 1580 1579 1579 1581 1582
1476 1480 1481 1483 1486 1486 1488 1493 1502 1511 1519 1527 1533 1539 1544 1547 1550 1553 1553 1556 1559 1560 1561 1563 1566 1568 1570 1572 1573 1575 1576 1577 1579 1580 1580 1581 1581 1581 1581 1580 1580 1581 1582
1477 1479 1481 1482 1484 1484 1487 1493 1500 1510 1517 1527 1535 1538 1544 1547 1550 1553 1556 1558 1560 1562 1563 1565 1568 1569 1572 1573 1574 1575 1577 1579 1580 1581 1581 1582 1582 1583 1583 1582 1583 1583 1584
1480 1481 1482 1483 1486 1488 1490 1495 1503 1511 1519 1528 1534 1539 1545 1547 1550 1552 1556 1559 1561 1564 1564 1566 1570 1570 1574 1575 1576 1578 1579 1580 1582 1582 1583 1583 1583 1584 1585 1584 1584 1584 1584
1480 1482 1483 1485 1489 1493 1496 1501 1505 1513 1521 1526 1532 1540 1545 1548 1550 1553 1556 1559 1561 1563 1565 1568 1570 1572 1574 1575 1577 1579 1581 1581 1583 1583 1584 1585 1585 1586 1587 1587 1587 1587 1585
1478 1481 1485 1487 1488 1493 1496 1501 1508 1513 1518 1525 1534 1540 1544 1547 1550 1552 1556 1558 1562 1561 1564 1566 1569 1572 1574 1575 1578 1579 1581 1581 1582 1583 1584 1585 1586 1586 1588 1588 1588 1588 1586
1475 1480 1483 1484 1487 1491 1497 1501 1508 1515 1521 1526 1534 1540 1543 1547 1551 1553 1556 1558 1560 1562 1564 1565 1569 1571 1573 1574 1576 1579 1581 1581 1582 1583 1583 1584 1585 1586 1586 1587 1587 1587 1587
1477 1478 1480 1484 1487 1491 1497 1503 1511 1517 1523 1528 1534 1538 1542 1547 1551 1554 1556 1558 1559 1561 1563 1567 1569 1571 1572 1574 1575 1578 1578 1580 1580 1582 1582 1583 1584 1585 1585 1585 1586 1586 1586
1476 1479 1482 1485 1488 1492 1498 1504 1511 1517 1523 1528 1532 1537 1543 1547 1551 1553 1555 1557 1558 1560 1563 1566 1567 1571 1572 1573 1575 1575 1576 1577 1577 1578 1579 1580 1582 1583 1583 1583 1584 1584 1584
1474 1477 1479 1483 1487 1493 1497 1501 1508 1513 1520 1525 1531 1536 1541 1546 1548 1551 1553 1554 1556 1559 1563 1565 1566 1568 1569 1570 1571 1573 1573 1574 1573 1574 1576 1578 1579 1580 1580 1581 1581 1581 1582
1471 1475 1478 1481 1485 1489 1494 1500 1506 1512 1518 1524 1531 1533 1539 1543 1546 1547 1550 1553 1555 1557 1561 1562 1562 1565 1566 1567 1568 1570 1571 1572 1567 1568 1570 1573 1574 1575 1576 1577 1577 1577 1578
1468 1471 1475 1479 1483 1489 1495 1498 1505 1512 1518 1522 1527 1531 1534 1539 1543 1544 1549 1550 1552 1553 1557 1558 1559 1561 1562 1563 1563 1568 1567 1565 1563 1563 1565 1567 1569 1570 1571 1572 1572 1573 1573
1465 1468 1471 1476 1481 1486 1491 1496 1500 1506 1510 1516 1520 1526 1529 1534 1538 1541 1543 1546 1548 1549 1551 1553 1555 1556 1557 1558 1559 1560 1561 1561 1560 1560 1560 1562 1564 1565 1566 1567 1567 1567 1567
1462 1466 1469 1473 1478 1482 1486 1490 1495 1500 1506 1512 1516 1519 1524 1528 1532 1536 1538 1540 1543 1545 1546 1548 1549 1550 1551 1552 1552 1554 1554 1555 1555 1554 1556 1557 1558 1559 1560 1561 1562 1561 1561
1459 1463 1466 1470 1473 1478 1482 1487 1492 1495 1500 1506 1509 1513 1518 1522 1526 1528 1532 1534 1538 1540 1540 1542 1543 1544 1546 1546 1547 1547 1547 1548 1547 1548 1549 1550 1551 1552 1554 1553 1555 1555 1555